Weather History for KHVR - December, 2013

Change the Weather History Date:

Thursday, December 5, 2013

  Actual Average Record
Temperature  
Mean Temperature -21 °F 22 °F  
Max Temperature -14 °F 33 °F 71 °F (1939)
Min Temperature -28 °F 11 °F -28 °F (2013)
Degree Days  
Heating Degree Days 86 43  
Month to date heating degree days 278 213  
Since 1 July heating degree days 2204 2256  
Cooling Degree Days 0 0  
Month to date cooling degree days 0 0  
Year to date cooling degree days 445 387  
Moisture  
Dew Point -25 °F    
Average Humidity 79    
Maximum Humidity 86    
Minimum Humidity 72    
Precipitation  
Precipitation T in 0.01 in 0.62 in (1882)
Month to date precipitation 0.48 0.06  
Year to date precipitation 18.35 10.86  
Snow  
Snow T in 0.20 in 4.80 in (2005)
Month to date snowfall 8.3 1.0  
Since 1 July snowfall 14.1 8.6  
Snow Depth 8.00 in    
Sea Level Pressure  
Sea Level Pressure 30.54 in    
Wind  
Wind Speed 9 mph (WSW)    
Max Wind Speed 15 mph    
Max Gust Speed 16 mph    
Visibility 9 miles    
Events Snow    
T = Trace of Precipitation, MM = Missing Value Source: NWS Daily Summary

Daily Weather History Graph

Daily Weather History Graph

Search for Another Location

Airport or City:

Trip Planner

Search our weather history database for the weather conditions in past years. The results will help you decide how hot, cold, wet, or windy it might be!

Date:

Astronomy

Dec. 05, 2013 Rise Set
Actual Time 7:55 AM MST 4:24 PM MST
Civil Twilight 7:18 AM MST 5:00 PM MST
Nautical Twilight 6:39 AM MST 5:40 PM MST
Astronomical Twilight 6:01 AM MST 6:18 PM MST
Moon 10:10 AM MST (12/5) 7:57 PM MST (12/5)
Length of Visible Light 9h 41m
Length of Day
8h 29m
Waxing Crescent, 11% of the Moon is Illuminated
Dec 5
Waxing Crescent
Dec 9
First Quarter
Dec 17
Full
Dec 25
Last Quarter
Jan 1
New

Hourly Weather History & Observations

Time (MST) Temp. Windchill Dew Point Humidity Pressure Visibility Wind Dir Wind Speed Gust Speed Precip Events Conditions
12:10 AM -18.0 °F -39.7 °F -23.1 °F 78% 30.28 in 8.0 mi SW 11.5 mph - N/A   Mostly Cloudy
12:21 AM -18.9 °F -41.8 °F -23.1 °F 81% 30.28 in 10.0 mi SW 12.7 mph - N/A   Scattered Clouds
12:53 AM -18.0 °F -41.6 °F -23.1 °F 78% 30.51 in 10.0 mi SW 13.8 mph - N/A   Clear
1:53 AM -20.9 °F -43.3 °F -25.1 °F 81% 30.51 in 10.0 mi SW 11.5 mph - N/A   Clear
2:53 AM -22.0 °F -39.4 °F -26.0 °F 82% 30.53 in 10.0 mi West 6.9 mph - N/A   Clear
3:53 AM -20.0 °F -44.1 °F -25.1 °F 78% 30.53 in 10.0 mi SW 13.8 mph - N/A   Clear
4:53 AM -23.1 °F -44.9 °F -27.9 °F 78% 30.54 in 10.0 mi SW 10.4 mph - N/A   Clear
5:53 AM -24.0 °F -37.9 °F -29.0 °F 77% 30.56 in 10.0 mi West 4.6 mph - N/A   Clear
6:53 AM -26.0 °F -40.2 °F -29.9 °F 81% 30.56 in 10.0 mi West 4.6 mph - N/A   Clear
7:53 AM -27.9 °F -42.5 °F -32.1 °F 81% 30.57 in 10.0 mi West 4.6 mph - N/A   Clear
8:25 AM -27.9 °F -46.6 °F -33.0 °F 77% 30.29 in 10.0 mi West 6.9 mph - N/A   Mostly Cloudy
8:53 AM -26.0 °F -40.2 °F -29.9 °F 81% 30.57 in 10.0 mi West 4.6 mph - N/A   Scattered Clouds
9:49 AM -23.8 °F -46.9 °F -29.2 °F 76% 30.31 in 10.0 mi West 11.5 mph - N/A   Partly Cloudy
9:53 AM -24.0 °F -46.0 °F -29.0 °F 77% 30.58 in 10.0 mi West 10.4 mph - N/A   Partly Cloudy
10:53 AM -20.0 °F -35.3 °F -24.0 °F 82% 30.58 in 10.0 mi WSW 5.8 mph - N/A   Clear
11:53 AM -17.0 °F -33.4 °F -22.0 °F 78% 30.57 in 10.0 mi WSW 6.9 mph - N/A   Clear
12:53 PM -15.0 °F -31.0 °F -20.9 °F 75% 30.57 in 10.0 mi West 6.9 mph - N/A   Clear
1:53 PM -14.1 °F -29.9 °F -20.9 °F 71% 30.58 in 10.0 mi WNW 6.9 mph - N/A   Clear
2:53 PM -14.1 °F -31.3 °F -20.0 °F 75% 30.58 in 10.0 mi WSW 8.1 mph - N/A   Clear
3:53 PM -17.0 °F -36.1 °F -22.0 °F 78% 30.60 in 10.0 mi SW 9.2 mph - N/A   Clear
4:53 PM -20.0 °F -39.9 °F -25.1 °F 78% 30.63 in 10.0 mi SW 9.2 mph - N/A   Clear
5:53 PM -18.0 °F -39.7 °F -23.1 °F 78% 30.65 in 10.0 mi SW 11.5 mph - N/A   Mostly Cloudy
6:53 PM -16.1 °F -36.2 °F -22.0 °F 74% 30.67 in 6.0 mi WSW 10.4 mph - 0.00 in Snow Light Snow
7:44 PM -18.0 °F -37.5 °F -24.0 °F 74% 30.41 in 10.0 mi WSW 9.2 mph - 0.00 in   Mostly Cloudy
7:53 PM -18.9 °F -35.8 °F -25.1 °F 74% 30.72 in 10.0 mi SW 6.9 mph - 0.00 in   Mostly Cloudy
8:01 PM -18.0 °F -36.1 °F -24.0 °F 74% 30.42 in 10.0 mi SSW 8.1 mph - N/A   Mostly Cloudy
8:29 PM -16.1 °F -33.7 °F -22.0 °F 74% 30.43 in 7.0 mi WSW 8.1 mph - N/A   Overcast
8:53 PM -16.1 °F -35.0 °F -22.0 °F 74% 30.71 in 9.0 mi SW 9.2 mph - N/A   Overcast
9:43 PM -18.0 °F -36.1 °F -23.1 °F 78% 30.44 in 10.0 mi SW 8.1 mph - N/A   Mostly Cloudy
9:53 PM -17.0 °F -34.8 °F -23.1 °F 74% 30.72 in 6.0 mi SW 8.1 mph - 0.00 in Snow Light Snow
10:00 PM -17.0 °F -34.8 °F -23.1 °F 74% 30.44 in 5.0 mi SW 8.1 mph - 0.00 in Snow Light Snow
10:53 PM -16.1 °F -39.1 °F -22.0 °F 74% 30.73 in 4.0 mi West 13.8 mph - 0.00 in   Haze
11:03 PM -16.1 °F -37.2 °F -22.0 °F 74% 30.46 in 6.0 mi West 11.5 mph - N/A   Haze
11:40 PM -17.0 °F -38.4 °F -23.1 °F 74% 30.46 in 4.0 mi WSW 11.5 mph - N/A   Haze
11:53 PM -17.0 °F -36.1 °F -22.0 °F 78% 30.73 in 5.0 mi WSW 9.2 mph - N/A   Haze